Dodge City, KS

9:44 AM CST on January 22, 2017 (GMT -0600)
Dodge City Regional

Weather History for KDDC - November, 2012

Change the Weather History Date:

Sunday, November 4, 2012

  Actual Average Record
Temperature  
Mean Temperature 54 °F -  
Max Temperature 70 °F 57 °F 81 °F (1891)
Min Temperature 37 °F 33 °F 9 °F (1991)
Degree Days  
Heating Degree Days 12    
Growing Degree Days 4 (Base 50)    
Moisture  
Dew Point 32 °F    
Average Humidity 49    
Maximum Humidity 76    
Minimum Humidity 19    
Precipitation  
Precipitation 0.00 in - - ()
Sea Level Pressure  
Sea Level Pressure 30.12 in    
Wind  
Wind Speed 9 mph (SW)    
Max Wind Speed 18 mph    
Max Gust Speed 24 mph    
Visibility 10 miles    
Events      
Averages and records for this station are not official NWS values.
T = Trace of Precipitation, MM = Missing Value Source: NWS Daily Summary

Daily Weather History Graph

Daily Weather History Graph

Search for Another Location

Airport or City:

Trip Planner

Search our weather history database for the weather conditions in past years. The results will help you decide how hot, cold, wet, or windy it might be!

Date:

Astronomy

Nov. 04, 2012 Rise Set
Actual Time 7:08 AM CST 5:37 PM CST
Civil Twilight 6:41 AM CST 6:04 PM CST
Nautical Twilight 6:10 AM CST 6:36 PM CST
Astronomical Twilight 5:39 AM CST 7:06 PM CST
Moon 10:18 PM CST (11/4) 11:52 AM CST (11/4)
Length of Visible Light 11h 23m
Length of Day
10h 28m
Waning Gibbous, 72% of the Moon is Illuminated
Nov 4
Waning Gibbous
Nov 6
Last Quarter
Nov 13
New
Nov 20
First Quarter
Nov 28
Full

Hourly Weather History & Observations

Time (CST) Temp. Windchill Dew Point Humidity Pressure Visibility Wind Dir Wind Speed Gust Speed Precip Events Conditions
12:52 AM 37.9 °F 32.1 °F 30.9 °F 76% 30.20 in 10.0 mi South 8.1 mph - N/A   Clear
1:52 AM 39.0 °F 34.0 °F 30.0 °F 70% 30.19 in 10.0 mi SSW 6.9 mph - N/A   Clear
1:52 AM 37.9 °F 32.1 °F 30.0 °F 73% 30.18 in 10.0 mi SSW 8.1 mph - N/A   Clear
2:52 AM 37.0 °F 31.0 °F 30.0 °F 76% 30.17 in 10.0 mi SSW 8.1 mph - N/A   Clear
3:52 AM 39.0 °F 32.3 °F 30.0 °F 70% 30.16 in 10.0 mi SSW 10.4 mph - N/A   Clear
4:52 AM 37.0 °F 30.4 °F 28.9 °F 73% 30.17 in 10.0 mi SSW 9.2 mph - N/A   Clear
5:52 AM 39.9 °F 33.9 °F 30.0 °F 68% 30.18 in 10.0 mi SSW 9.2 mph - N/A   Clear
6:52 AM 37.0 °F 31.0 °F 28.9 °F 73% 30.19 in 10.0 mi SW 8.1 mph - N/A   Clear
7:52 AM 39.9 °F 33.9 °F 30.9 °F 70% 30.19 in 10.0 mi SW 9.2 mph - N/A   Clear
8:52 AM 48.9 °F - 32.0 °F 52% 30.18 in 10.0 mi SW 12.7 mph - N/A   Clear
9:52 AM 54.0 °F - 32.0 °F 43% 30.16 in 10.0 mi SW 15.0 mph 24.2 mph N/A   Clear
10:52 AM 57.9 °F - 30.9 °F 36% 30.14 in 10.0 mi SSW 18.4 mph - N/A   Clear
11:52 AM 62.1 °F - 33.1 °F 34% 30.11 in 10.0 mi SW 15.0 mph - N/A   Clear
12:52 PM 66.0 °F - 35.1 °F 32% 30.06 in 10.0 mi SW 16.1 mph - N/A   Clear
1:52 PM 68.0 °F - 36.0 °F 31% 30.04 in 10.0 mi SW 11.5 mph - N/A   Clear
2:52 PM 69.1 °F - 36.0 °F 30% 30.03 in 10.0 mi WSW 11.5 mph - N/A   Clear
3:52 PM 69.1 °F - 35.1 °F 29% 30.01 in 10.0 mi SW 8.1 mph - N/A   Clear
4:52 PM 66.0 °F - 36.0 °F 33% 30.02 in 10.0 mi SSW 8.1 mph - N/A   Clear
5:52 PM 59.0 °F - 36.0 °F 42% 30.03 in 10.0 mi SSW 4.6 mph - N/A   Clear
6:52 PM 59.0 °F - 36.0 °F 42% 30.06 in 10.0 mi WSW 8.1 mph - N/A   Clear
7:52 PM 57.0 °F - 35.1 °F 44% 30.07 in 10.0 mi WNW 9.2 mph - N/A   Clear
8:52 PM 54.0 °F - 34.0 °F 47% 30.09 in 10.0 mi NNW 5.8 mph - N/A   Scattered Clouds
9:52 PM 55.9 °F - 30.0 °F 37% 30.10 in 10.0 mi North 11.5 mph - N/A   Scattered Clouds
10:52 PM 52.0 °F - 30.9 °F 45% 30.12 in 10.0 mi North 6.9 mph - N/A   Clear